Location: Burgberg
(50.1428°N, 11.0671°E)
Time: 00:19:51
(UTC+00:00)

STARLINK-54 - Pass Details

Date: 26 January 2020
Orbit: 528 x 531 km, 53.0° (Epoch: 23 February)

Event Time Altitude Azimuth Distance (km) Brightness Sun altitude
Exits shadow 04:45:25 73° 289° (WNW) 560 3.4 -21.1°
Maximum altitude 04:45:43 79° 342° (NNW) 545 3.4 -21.1°
Drops below altitude 10° 04:49:46 10° 69° (ENE) 1,783 7.1 -20.4°
Sets 04:52:00 0° 71° (ENE) 2,675 8.3 -20.1°
